St. George, UT

1:34 AM MST on December 15, 2019 (GMT -0700)
Saint George Municipal

Weather History for KSGU - July, 2019

Change the Weather History Date:

Monday, July 22, 2019

  Actual Average Record
Temperature  
Mean Temperature 86 °F -  
Max Temperature 100 °F 99 °F 110 °F (1942)
Min Temperature 73 °F 69 °F 56 °F (1972)
Cooling Degree Days 22    
Growing Degree Days 36 (Base 50)    
Moisture  
Dew Point 41 °F    
Average Humidity 19    
Maximum Humidity 25    
Minimum Humidity 14    
Precipitation  
Precipitation 0.00 in - - ()
Sea Level Pressure  
Sea Level Pressure 29.89 in    
Wind  
Wind Speed 6 mph (South)    
Max Wind Speed 21 mph    
Max Gust Speed 28 mph    
Visibility 9 miles    
Events      
Averages and records for this station are not official NWS values.
T = Trace of Precipitation, MM = Missing Value Source: NWS Daily Summary

Daily Weather History Graph

Daily Weather History Graph

Search for Another Location

Airport or City:

Astronomy

Jul. 22, 2019 Rise Set
Actual Time 6:31 AM MDT 8:49 PM MDT
Civil Twilight 6:01 AM MDT 9:18 PM MDT
Nautical Twilight 5:25 AM MDT 9:55 PM MDT
Astronomical Twilight 4:45 AM MDT 10:34 PM MDT
Moon No Moon Rise 11:45 AM MDT (7/22)
Length of Visible Light 15h 17m
Length of Day
14h 18m
Waning Gibbous, 72% of the Moon is Illuminated
Jul 22
Waning Gibbous
Jul 24
Last Quarter
Jul 31
New
Aug 7
First Quarter
Aug 15
Full

Hourly Weather History & Observations

Time (MDT) Temp. Dew Point Humidity Pressure Visibility Wind Dir Wind Speed Gust Speed Precip Events Conditions
12:56 AM 84.0 °F 35.1 °F 17% 29.84 in 10.0 mi ESE 8.1 mph - N/A   Clear
1:56 AM 82.0 °F 35.1 °F 18% 29.84 in 10.0 mi ESE 8.1 mph - N/A   Clear
2:56 AM 80.1 °F 35.1 °F 20% 29.85 in 10.0 mi ESE 5.8 mph - N/A   Clear
3:56 AM 79.0 °F 35.1 °F 20% 29.86 in 10.0 mi East 8.1 mph - N/A   Clear
4:56 AM 79.0 °F 36.0 °F 21% 29.87 in 10.0 mi East 3.5 mph - N/A   Clear
5:56 AM 73.0 °F 35.1 °F 25% 29.89 in 10.0 mi Calm Calm - N/A   Clear
6:56 AM 73.0 °F 35.1 °F 25% 29.91 in 8.0 mi SSE 4.6 mph - N/A   Clear
7:56 AM 75.9 °F 37.0 °F 24% 29.92 in 9.0 mi SE 3.5 mph - N/A   Clear
8:56 AM 80.1 °F 37.9 °F 22% 29.94 in 9.0 mi Calm Calm - N/A   Clear
9:56 AM 84.0 °F 39.9 °F 21% 29.94 in 10.0 mi Calm Calm - N/A   Clear
10:56 AM 88.0 °F 41.0 °F 19% 29.95 in 5.0 mi Variable 3.5 mph - N/A   Haze
11:56 AM 93.0 °F 42.1 °F 17% 29.94 in 9.0 mi NW 3.5 mph - N/A   Clear
12:56 PM 97.0 °F 44.1 °F 16% 29.92 in 10.0 mi West 6.9 mph - N/A   Clear
1:56 PM 100.0 °F 46.0 °F 16% 29.91 in 10.0 mi WNW 6.9 mph - N/A   Clear
2:56 PM 100.9 °F 44.1 °F 14% 29.89 in 9.0 mi WNW 6.9 mph - N/A   Clear
3:56 PM 100.9 °F 48.0 °F 17% 29.88 in 9.0 mi WNW 8.1 mph 18.4 mph N/A   Clear
4:56 PM 100.9 °F 46.9 °F 16% 29.87 in 4.0 mi WSW 10.4 mph - N/A   Haze
5:56 PM 100.0 °F 46.9 °F 16% 29.85 in 9.0 mi WSW 20.7 mph 27.6 mph N/A   Clear
6:15 PM 100.4 °F 44.6 °F 15% 29.98 in 10.0 mi SSW 19.6 mph - N/A   Clear
6:56 PM 100.0 °F 43.0 °F 14% 29.85 in 10.0 mi South 8.1 mph - N/A   Clear
7:56 PM 99.0 °F 44.1 °F 15% 29.85 in 10.0 mi SSW 6.9 mph - N/A   Clear
8:56 PM 95.0 °F 44.1 °F 17% 29.85 in 10.0 mi SE 6.9 mph - N/A   Clear
9:56 PM 93.0 °F 44.1 °F 18% 29.86 in 10.0 mi SE 5.8 mph - N/A   Clear
10:56 PM 90.0 °F 45.0 °F 21% 29.87 in 10.0 mi South 3.5 mph - N/A   Clear
11:56 PM 89.1 °F 45.0 °F 22% 29.88 in 10.0 mi ESE 3.5 mph - N/A   Clear